Lapse_Rate
5.6 5.5 5.6 5.4 5.5 5.6 5.3 5.2 5.4 5.3 5.2 5.7 6.3 6.3 6.0 6.3 6.4 6.4 6.0 6.1 6.4 6.0 6.3 6.3 6.2 6.0 6.2 6.1 6.2 6.2 6.4 6.4 6.1 6.1 6.6 6.9 7.2 7.1 6.9 7.0 6.8 6.7 6.6 6.6
5.5 5.9 5.3 5.1 5.3 5.3 5.3 5.5 5.4 5.3 5.5 6.1 6.1 5.6 5.8 5.9 6.2 6.5 6.6 6.3 6.4 6.2 6.0 6.2 6.1 6.1 5.8 5.9 5.9 6.0 5.9 6.2 6.3 6.4 6.0 6.4 6.7 6.7 6.6 6.4 6.3 6.3 6.2 6.3
5.6 5.3 5.5 5.9 5.9 5.7 5.3 5.2 5.1 5.0 5.9 6.2 6.3 5.9 5.6 5.5 5.5 5.6 6.1 6.2 6.3 6.3 6.4 6.3 6.3 5.8 5.8 5.9 5.7 5.7 5.9 6.1 6.1 6.3 6.2 6.0 6.0 6.3 6.5 6.7 6.6 6.3 6.1 6.0
5.4 5.2 5.7 6.1 5.9 5.8 5.6 5.6 5.4 5.5 5.6 6.0 6.1 5.6 6.0 5.8 5.7 5.8 5.7 5.7 6.0 6.4 6.2 6.3 6.3 6.1 5.8 5.7 5.5 5.7 6.1 6.0 6.0 6.1 6.1 6.3 6.3 6.1 6.0 6.1 6.0 6.1 5.9 5.8
5.2 5.1 5.6 5.9 5.8 5.8 5.5 5.3 5.3 5.5 5.3 5.6 5.6 5.6 5.8 6.0 6.1 5.9 5.7 5.6 5.6 5.6 5.9 6.1 6.1 6.0 6.1 5.9 5.9 5.6 5.5 5.9 5.8 5.7 6.0 6.0 6.1 6.3 6.3 6.3 5.9 5.5 6.0 5.5
5.2 5.2 5.4 5.3 5.6 5.6 5.6 5.5 5.3 5.4 5.6 5.0 5.6 5.5 5.9 5.8 5.6 5.7 5.5 5.4 5.5 5.6 5.5 5.5 5.5 5.8 5.8 5.9 6.0 5.9 5.9 5.8 5.7 5.7 5.5 5.8 5.9 6.0 6.0 6.3 6.2 5.9 5.3 4.9
5.2 5.2 5.5 5.4 5.6 5.5 5.7 5.6 5.0 4.3 4.1 3.9 5.5 5.6 5.2 5.0 5.0 5.2 5.7 5.7 5.6 5.6 5.7 5.7 5.6 5.6 5.5 5.4 5.6 5.9 5.9 6.1 5.9 5.8 5.9 5.8 5.5 5.5 5.7 5.9 6.0 6.0 5.6 5.6
5.1 5.2 5.4 5.1 5.2 5.4 5.3 4.8 4.7 3.3 4.4 4.2 5.6 5.5 5.2 5.1 5.1 5.2 5.2 5.5 5.6 5.8 5.9 6.2 6.1 5.9 5.9 5.8 5.6 5.7 5.8 5.8 5.9 6.0 5.9 5.9 6.0 5.7 5.5 5.6 5.8 5.9 5.9 5.9
4.7 5.0 5.0 4.9 5.0 5.4 5.1 4.9 4.8 4.9 4.2 4.0 5.1 5.1 5.0 5.0 4.9 5.4 5.5 5.5 5.6 5.8 5.9 6.0 5.9 6.1 6.1 5.8 5.7 5.6 5.6 5.6 5.7 5.8 5.9 6.0 6.0 5.8 5.7 5.5 5.5 5.7 5.8 6.1
4.7 4.6 5.0 4.9 4.9 5.1 5.0 4.7 4.7 4.8 3.4 3.4 4.7 4.6 4.5 5.3 5.6 5.4 5.1 5.0 5.2 5.6 5.8 5.9 6.0 6.1 6.3 6.3 6.0 5.9 5.9 5.6 5.4 5.5 5.7 5.8 5.8 5.8 5.7 5.8 5.7 6.1 6.3 6.1
4.8 4.7 5.1 4.7 4.8 5.0 4.9 4.7 4.7 4.4 4.6 3.5 3.7 4.2 4.3 4.5 4.9 5.0 4.5 4.5 4.6 4.9 5.0 5.4 5.6 6.2 6.4 6.2 6.1 6.2 6.3 6.1 6.0 5.7 5.5 5.7 5.9 5.9 5.9 5.7 5.8 5.8 6.0 6.2
4.9 4.8 4.8 4.7 4.8 4.8 4.6 4.2 4.4 4.4 4.4 4.4 4.5 4.7 4.4 4.6 4.8 4.6 4.2 4.2 4.4 4.7 5.1 5.4 5.2 5.3 5.2 5.4 5.7 6.2 6.6 6.6 6.5 6.1 6.1 6.0 6.2 5.8 5.8 5.8 5.7 5.8 6.0 6.0
4.8 4.9 4.8 4.8 4.9 5.1 4.7 4.2 4.3 4.5 4.2 4.1 4.0 4.6 4.5 4.6 4.5 4.0 3.9 3.9 3.8 3.8 3.8 4.1 4.7 4.7 4.6 5.3 6.1 6.4 6.3 6.1 6.5 6.1 6.1 6.2 6.6 6.4 6.2 6.0 5.8 5.9 6.0 6.0
4.7 5.2 4.9 4.8 4.8 5.4 5.3 4.6 4.3 4.5 4.2 4.4 4.5 4.7 4.9 4.5 4.2 3.9 3.8 4.0 3.7 3.7 3.4 3.0 3.3 3.8 4.1 4.8 5.4 4.9 5.5 5.7 5.9 6.2 6.4 6.2 6.6 6.7 6.3 6.2 6.2 6.2 6.1 6.2
4.7 5.3 5.2 5.2 5.4 5.9 6.0 6.0 5.3 4.7 4.2 3.9 4.7 4.7 4.7 4.6 4.2 4.2 4.4 4.1 4.1 4.2 4.1 3.4 3.0 3.3 3.9 4.4 4.7 5.0 6.0 6.9 7.2 6.9 7.1 6.7 6.7 6.6 6.4 6.4 6.6 6.5 6.3 5.8
4.6 5.0 5.3 5.7 5.7 5.9 6.3 6.4 5.7 5.0 4.7 4.6 4.5 5.0 5.0 4.6 4.5 4.6 4.2 4.1 4.3 4.6 4.2 3.9 3.4 3.2 3.6 4.2 5.0 5.8 6.4 7.3 6.9 7.0 7.1 7.2 6.7 6.5 6.0 6.0 6.3 6.3 5.8 6.0
4.3 4.8 5.1 5.5 5.5 6.0 6.5 6.7 6.3 5.9 5.6 5.4 5.4 5.1 5.2 4.6 4.6 4.7 4.9 5.3 5.1 5.1 4.9 4.4 4.2 3.9 3.9 3.7 4.8 5.7 6.5 6.8 6.8 6.8 6.7 7.0 6.9 6.5 5.9 6.1 6.0 5.9 5.9 6.3
4.5 4.4 4.6 5.4 5.6 4.2 6.8 6.6 6.3 6.1 6.0 5.9 5.7 5.7 5.6 5.0 5.3 5.5 5.5 5.7 5.7 5.5 5.4 5.3 5.2 4.9 4.5 4.5 4.7 4.8 5.4 5.8 6.4 6.6 6.9 6.9 6.7 6.1 5.6 5.8 5.7 5.8 5.8 6.1
4.7 4.2 4.2 4.6 4.5 6.2 6.8 6.8 6.6 6.2 6.4 6.3 6.1 5.8 5.9 6.0 6.0 5.9 5.8 6.2 6.2 5.8 5.4 5.3 5.3 5.3 5.3 5.1 5.3 5.3 5.2 5.2 4.9 4.8 5.6 6.1 5.4 5.4 5.5 5.7 5.8 5.8 5.9 6.2
4.7 4.2 3.9 3.2 4.2 2.9 6.7 6.5 6.5 6.3 6.8 6.9 6.7 6.7 6.6 6.5 6.4 6.4 6.1 6.4 6.3 6.0 5.7 5.5 5.2 5.2 5.2 5.5 5.3 5.2 5.4 5.5 5.6 5.5 5.6 5.6 6.0 5.7 5.7 6.0 5.9 6.0 6.2 6.4
4.7 4.1 3.7 3.6 4.7 6.1 6.8 6.5 6.2 6.4 7.2 7.4 7.3 7.1 7.0 6.8 6.6 6.7 6.7 6.5 6.3 6.1 6.2 6.1 5.7 5.5 5.4 5.4 5.4 5.4 5.6 5.9 6.3 6.6 6.6 6.3 6.3 6.1 6.3 6.8 7.0 7.0 7.4 7.2
5.8 5.4 5.0 4.0 4.2 5.6 6.9 6.6 6.4 6.6 6.9 7.6 7.5 7.3 7.2 7.1 7.0 7.0 7.0 6.7 6.5 6.4 6.5 6.5 6.3 6.0 5.9 5.8 5.6 5.6 5.6 6.0 6.1 6.1 6.2 6.4 6.6 6.8 6.9 6.9 6.9 6.8 6.8 6.8
5.4 6.0 6.0 6.0 6.4 6.5 6.5 6.8 6.8 6.9 6.7 6.9 7.3 7.3 7.1 7.0 7.1 7.1 7.0 6.8 6.7 6.7 6.7 6.6 6.5 6.3 6.1 6.0 5.8 5.8 5.9 6.1 6.1 6.2 6.1 6.3 6.5 6.5 6.6 6.7 6.8 6.9 7.0 7.1
6.3 6.1 5.9 6.1 6.7 6.6 6.4 6.5 7.0 6.8 6.9 6.9 6.9 6.9 6.9 6.7 6.9 7.1 6.8 6.6 6.5 6.4 6.4 6.4 6.4 6.3 6.2 6.0 5.8 5.8 6.0 6.1 6.1 6.2 6.2 6.3 6.4 6.6 6.8 7.0 7.2 7.4 7.5 7.6
6.0 6.0 6.3 6.6 6.8 6.5 6.5 6.5 6.5 6.8 7.1 7.1 7.0 6.9 6.8 6.8 6.8 6.8 6.7 6.7 6.6 6.6 6.6 6.4 6.2 6.0 6.0 6.0 5.9 5.8 6.0 6.0 6.1 6.3 6.4 6.7 6.8 7.0 7.2 7.4 7.6 7.7 7.7 7.7
6.5 6.6 6.5 7.0 6.6 6.3 6.4 6.5 6.6 6.7 6.8 7.0 7.1 7.1 7.0 7.1 7.1 7.0 6.9 6.7 6.6 6.4 6.4 6.2 6.1 6.1 6.2 6.2 6.1 6.2 6.2 6.3 6.4 6.6 6.8 7.0 7.2 7.5 7.6 7.7 7.8 7.8 7.8 7.7
Wind_Speed
6 8 5 5 3 2 1 2 3 3 3 5 5 7 9 13 8 7 5 6 8 9 11 11 8 7 7 7 7 9 12 13 10 9 10 9 10 9 8 13 18 22 21 20
6 6 4 3 1 2 3 3 4 3 5 3 6 6 5 13 16 18 17 15 15 15 17 18 16 14 7 7 10 12 11 11 12 9 9 7 10 8 10 15 15 17 20 22
5 5 5 4 6 6 4 4 4 3 7 2 7 1 5 3 11 15 17 13 15 15 16 18 18 15 13 14 10 7 10 12 12 11 6 2 3 2 4 5 7 11 18 21
2 5 5 4 3 4 2 2 2 4 4 2 4 2 3 6 7 14 15 15 15 16 16 15 17 17 15 14 13 14 7 7 13 11 9 12 9 9 8 8 9 10 20 20
3 7 6 4 4 2 2 5 3 2 2 3 4 4 4 6 10 19 15 14 13 12 13 14 15 15 15 13 12 11 13 6 6 12 14 11 10 7 4 3 8 8 11 19
2 4 3 3 4 2 5 3 5 4 3 3 3 3 4 5 7 15 16 16 16 15 13 13 13 14 15 14 13 13 12 13 6 6 11 14 15 10 6 8 8 8 8 9
6 5 5 3 5 4 6 5 3 5 5 3 2 2 1 4 3 6 14 17 17 16 16 15 16 15 15 16 17 14 14 13 11 8 9 11 14 12 12 11 10 10 9 7
4 6 6 8 2 2 4 3 2 4 2 4 3 1 3 1 1 6 8 16 18 18 17 18 17 15 14 15 15 16 14 14 11 10 10 10 11 9 10 11 10 10 10 11
4 5 4 3 4 2 3 4 3 3 2 1 3 2 4 4 6 11 15 16 16 17 18 19 17 14 14 12 12 16 15 14 12 11 10 10 11 11 11 14 11 10 11 10
2 4 2 5 3 3 3 1 3 3 3 3 3 2 3 13 16 16 16 14 15 15 15 15 15 15 12 13 12 13 13 13 13 15 13 11 13 12 12 10 11 11 11 11
2 3 6 3 4 3 4 3 2 1 2 2 3 2 4 7 9 10 11 12 13 15 16 14 14 14 13 13 12 12 11 13 12 11 13 11 10 10 9 8 8 9 8 8
2 2 4 7 5 4 1 2 2 3 4 1 2 3 3 4 5 6 8 10 12 14 14 15 15 14 13 13 13 13 13 13 12 10 10 4 6 5 1 3 5 6 9 10
4 1 3 6 3 4 0 1 1 1 0 4 2 4 1 2 3 5 9 12 11 12 15 13 12 12 11 12 13 15 14 14 13 11 10 10 12 11 11 10 9 9 8 12
5 3 5 5 5 0 3 3 2 2 2 2 4 4 3 2 4 7 7 7 8 8 11 12 13 12 11 12 14 16 14 14 13 11 11 12 12 13 12 11 10 9 10 9
2 2 3 7 8 5 7 8 7 6 3 4 4 5 5 5 5 7 7 6 6 10 8 11 13 13 13 14 14 14 15 15 13 12 12 12 11 13 12 13 11 9 11 11
1 3 3 4 4 6 9 8 7 5 3 7 4 6 7 3 5 5 6 5 5 7 6 8 11 13 13 13 13 14 14 14 13 12 12 12 12 12 12 11 11 11 11 11
2 2 3 5 2 5 4 6 10 4 6 5 7 7 5 5 8 6 5 4 4 5 6 7 9 9 10 11 11 12 12 12 12 12 11 12 12 11 12 11 10 12 12 9
4 3 1 4 5 3 5 2 4 6 5 9 3 3 7 7 5 7 6 5 4 4 4 4 5 7 9 11 11 11 11 10 10 12 12 11 12 10 10 11 11 11 9 9
2 3 1 2 2 7 1 5 7 7 6 14 11 7 6 4 4 9 8 5 1 1 2 3 4 4 6 8 9 10 11 10 10 11 11 12 9 8 10 11 10 9 7 8
4 4 3 1 1 5 4 4 5 4 4 10 14 11 8 5 2 4 6 4 4 3 1 3 5 4 7 9 8 8 8 9 10 10 10 10 9 10 11 9 10 6 6 8
4 4 7 3 5 9 6 6 6 5 5 7 14 9 9 6 5 1 7 4 4 3 4 3 4 5 5 7 6 6 6 8 8 7 7 7 8 7 7 8 8 7 7 7
8 8 5 3 1 8 7 5 7 5 1 7 8 7 10 7 6 5 6 6 6 5 4 3 3 3 4 5 5 5 6 7 6 5 6 7 6 6 6 8 8 9 8 9
3 7 5 9 7 3 13 2 6 4 5 6 8 7 8 7 7 8 7 7 6 6 5 3 3 1 3 4 4 3 5 6 6 5 5 5 5 7 7 8 8 7 9 8
5 4 3 3 4 13 9 13 4 5 5 6 7 8 9 7 8 7 6 6 6 5 5 4 3 0 3 2 3 2 5 5 4 4 7 7 8 6 7 7 6 8 8 8
4 7 6 6 9 3 11 12 13 9 6 5 6 9 10 9 7 8 7 7 6 5 3 5 4 4 5 3 4 4 5 4 3 4 5 6 6 6 4 5 6 5 6 8
6 8 6 8 9 5 7 8 12 13 14 10 9 7 8 10 10 8 7 7 7 7 6 7 7 4 5 3 4 4 3 2 3 4 4 4 4 5 5 4 4 8 7 9
Wind_Direction
3 59 20 334 19 79 350 18 318 269 343 343 339 315 322 343 7 342 341 2 7 356 339 355 341 264 207 202 205 207 191 194 189 195 185 185 196 195 197 193 186 187 188 184
21 41 322 311 310 34 29 7 348 296 333 355 352 316 355 46 44 48 45 33 19 13 6 5 15 8 325 277 226 216 198 192 197 196 199 200 192 201 199 187 192 190 184 179
71 320 316 337 36 18 44 60 350 293 315 7 347 60 30 50 41 38 35 25 23 15 2 357 1 0 6 9 324 275 221 193 197 199 197 221 184 110 157 202 197 190 184 186
345 317 356 355 60 11 27 271 275 309 19 337 24 204 19 350 17 29 22 16 5 2 358 354 352 353 359 356 354 352 305 251 191 183 190 198 197 202 202 196 204 193 189 192
286 343 343 359 334 330 299 317 298 251 207 50 5 70 279 10 353 355 358 2 357 356 354 348 343 344 341 349 347 346 346 308 264 195 189 197 209 218 190 170 177 200 202 201
304 288 303 293 308 53 296 18 42 36 50 42 294 105 339 11 347 341 341 352 351 349 351 345 338 339 339 343 345 344 345 335 290 232 211 196 203 201 186 188 197 205 206 213
343 326 315 331 328 18 2 45 2 9 15 203 37 48 345 348 2 341 334 341 347 347 345 344 342 343 336 338 338 337 336 325 328 297 227 221 215 213 205 197 200 199 204 209
50 338 4 332 18 341 10 13 76 173 343 288 325 276 175 31 126 352 352 347 344 343 343 341 335 331 333 329 329 326 325 315 319 310 286 222 221 207 207 208 209 209 209 210
22 287 322 351 314 33 333 46 330 106 34 13 275 78 305 9 10 360 359 356 347 343 343 341 336 333 328 328 324 322 316 312 308 301 291 255 223 216 219 217 214 214 212 216
220 304 215 295 318 336 93 264 22 6 32 328 310 333 312 347 344 348 356 353 341 342 341 341 340 337 333 328 327 321 315 311 307 301 291 260 234 223 224 231 221 220 220 214
95 115 292 21 15 5 8 22 0 296 143 159 304 282 357 341 336 343 346 339 344 345 349 346 344 339 337 337 338 334 332 330 324 315 299 247 234 228 223 216 222 212 223 207
86 126 272 244 267 291 14 155 95 101 306 266 187 260 1 348 344 331 336 336 343 348 348 343 339 337 343 347 348 349 348 340 335 332 339 43 64 30 344 227 245 249 220 223
153 6 341 340 351 352 158 187 129 136 261 235 155 269 152 1 353 339 336 338 336 341 344 339 341 345 348 355 356 359 354 349 345 358 18 43 60 59 50 47 38 32 35 45
105 157 189 208 222 136 287 200 200 214 124 272 235 283 274 301 314 329 323 323 317 328 331 340 349 348 350 4 5 3 353 355 356 11 29 43 47 54 49 44 34 48 43 43
94 210 188 257 266 260 262 263 244 207 202 205 254 210 242 224 252 283 296 307 331 338 332 351 346 348 354 4 3 359 3 358 353 15 32 34 43 51 50 44 35 31 43 42
57 281 41 290 253 264 279 264 240 221 241 250 238 259 216 195 253 272 280 293 297 319 341 342 346 351 355 2 358 1 3 357 356 16 26 29 33 47 47 47 34 39 40 43
148 103 47 270 308 318 333 221 197 202 227 215 216 231 140 214 251 260 264 275 286 329 350 353 349 349 350 355 354 2 359 352 5 12 19 29 29 33 45 42 40 37 37 33
139 105 130 278 351 6 238 183 191 187 219 214 226 220 182 200 225 253 232 246 301 342 347 341 352 354 351 350 358 352 359 3 12 17 17 20 35 28 42 52 41 41 38 36
172 121 314 242 228 293 297 205 179 181 272 201 207 211 204 220 275 271 206 210 173 328 5 358 358 3 357 0 349 349 360 360 14 16 16 18 17 32 42 52 52 39 32 36
111 91 122 286 232 221 236 181 170 160 285 189 188 202 186 154 197 256 165 158 155 147 93 27 354 6 26 358 347 1 0 2 8 358 2 6 11 36 40 39 45 25 31 37
164 202 225 214 242 283 233 157 156 86 239 164 184 183 160 187 202 127 120 127 158 156 121 86 47 32 7 350 348 11 1 12 343 346 2 11 7 19 24 33 39 27 33 32
168 163 198 132 147 284 152 81 177 209 120 167 176 184 184 190 146 146 152 162 174 173 151 109 78 24 8 10 5 14 14 334 335 355 12 9 3 15 23 37 37 28 25 29
241 190 179 193 214 246 199 195 217 180 150 184 172 182 182 177 189 175 178 180 184 184 158 129 138 31 359 13 12 357 332 330 339 359 17 5 3 26 21 41 37 34 30 31
238 171 213 45 262 231 230 244 264 228 213 178 173 173 169 183 181 184 175 181 180 179 172 154 160 229 290 328 330 300 321 328 354 14 38 41 46 26 27 45 46 43 33 29
191 135 182 265 272 297 252 233 224 217 225 194 171 177 189 180 188 180 183 186 188 170 159 171 189 212 244 278 298 316 338 348 17 48 48 48 51 46 25 32 29 48 35 35
192 182 175 225 211 182 236 221 196 193 202 201 181 191 200 184 188 174 187 184 169 176 163 178 193 202 235 244 272 299 344 7 49 54 49 36 40 36 26 23 8 13 30 40